{"data":{"norad_id":61048,"epoch":"2026-05-25T01:13:18.770016Z","epoch_age_seconds":63897,"freshness":"FRESH","line1":"1 61048U 24163D   26145.05091169  .00006616  00000+0  31115-3 0  9996","line2":"2 61048  52.9788  55.5318 0008921  55.8776 304.3063 15.20727766 94246","mean_motion":15.20727766,"eccentricity":0.0008921,"inclination_deg":52.9788,"raan_deg":55.5318,"arg_perigee_deg":55.8776,"mean_anomaly_deg":304.3063,"bstar":0.00031115,"rev_number":9424,"period_min":94.69150443591,"perigee_km":497.50491766438,"apogee_km":509.78339160047,"semimajor_km":6881.7811546324,"source":"CELESTRAK","updated_at":"2026-05-25T13:38:02.280253Z"}}